Regional Weather Roundup
Issued by NWS

Home | Current Version | Previous Version | Text Only | Print | Product List | Glossary On
Versions: 1 2 3 4 5 6 7 8 9 10 11 12 13 14 15 16 17 18 19 20 21 22 23 24 25 26 27 28 29 30 31 32 33 34 35 36 37 38 39 40 41 42 43 44 45 46 47 48 49 50
000
ASUS44 KFWD 230115
RWRTX
NORTH TEXAS HOURLY WEATHER ROUNDUP
NATIONAL WEATHER SERVICE FORT WORTH TX
800 PM CDT SUN OCT 22 2017

NOTE: "FAIR" INDICATES FEW OR NO CLOUDS BELOW 12,000 FEET WITH NO
SIGNIFICANT WEATHER AND/OR OBSTRUCTIONS TO VISIBILITY.

TXZ118-119-230200-
DALLAS/FORT WORTH METROPLEX

CITY           SKY/WX    TMP DP  RH WIND       PRES   REMARKS
DFW AIRPORT    CLEAR     65  38  36 N6        30.13R
DALLAS LOVE    CLEAR     66  37  34 N3        30.14R
FTW MEACHAM    CLEAR     65  39  38 NW5       30.15R
DAL-EXECUTIVE  CLEAR     60  43  53 N3        30.14R
FTW-ALLIANCE   CLEAR     56  39  53 CALM      30.15R
FTW-NAS-JRB    CLEAR     64  43  46 NW5       30.16R
FTW-SPINKS     CLEAR     63  37  38 NW6       30.17R
ARLINGTON      CLEAR     54  48  80 NW5       30.15R
GRAND PRAIRIE  CLEAR     64  36  34 CALM      30.16R
MESQUITE       CLEAR     63  41  45 CALM      30.15R
LANCASTER      CLEAR     59  46  61 CALM      30.16R
$$

TXZ091>094-102>105-117-120-121-131>134-230200-
NORTH CENTRAL TEXAS

CITY           SKY/WX    TMP DP  RH WIND       PRES   REMARKS
SHRMAN/DENISON CLEAR     58  39  48 N3        30.16R
GAINESVILLE    CLEAR     53  40  62 CALM      30.18R
BOWIE          CLEAR     53  46  79 CALM      30.17R
BRIDGEPORT     CLEAR     52  46  78 CALM      30.18S
DECATUR        CLEAR     62  33  34 N3        30.16R
DENTON         CLEAR     61  39  44 NW6       30.15R
MCKINNEY       CLEAR     61  43  51 NW3       30.14R
BONHAM         CLEAR     54  46  73 NW5       30.15R
GREENVILLE     CLEAR     59  50  72 CALM      30.15R
ROCKWALL       CLEAR     61  43  51 CALM      30.15R
TERRELL        CLEAR     60  42  51 N3        30.15R
WAXAHACHIE     CLEAR     60  42  49 N3        30.16R
CLEBURNE       CLEAR     61  41  48 NW7       30.18R HAZE
GRANBURY       CLEAR     58  40  50 W5        30.18S
$$

TXZ083>090-098>101-113>116-127>130-139>142-154-155-230200-
WESTERN NORTH TEXAS

CITY           SKY/WX    TMP DP  RH WIND       PRES   REMARKS
WICHITA FALLS  CLEAR     60  37  42 S6        30.16R
WF-KICKAPOO    CLEAR     61  40  46 CALM      30.19S
VERNON         CLEAR     59  38  44 S8        30.17S
ABILENE        CLEAR     64  37  36 CALM      30.21R
ABILENE-DYESS  CLEAR     58  42  54 E3        30.20R
GRAHAM           N/A     55  45  68 CALM      30.17R
BRECKENRIDGE   CLEAR     63  40  43 CALM      30.19R
CISCO          CLEAR     63  36  36 N5        30.21R
EASTLAND       CLEAR     52  44  74 N3        30.19S
RANGER         CLEAR     50  45  83 N3        30.19S
MINERAL WELLS  CLEAR     61  35  37 CALM      30.16R
STEPHENVILLE   CLEAR     62  39  41 NW3       30.21R
COMANCHE       CLEAR     62  41  45 N5        30.19S
COLEMAN        CLEAR     64  36  34 N5        30.20S
$$

TXZ143>147-156>162-174-175-230200-
CENTRAL TEXAS

CITY           SKY/WX    TMP DP  RH WIND       PRES   REMARKS
WACO           CLEAR     63  43  48 N5        30.15R
WACO-TSTC      CLEAR     59  46  63 N3        30.15R
WACO-MCGREGOR  CLEAR     64  46  52 NW6       30.16R
CORSICANA      CLEAR     61  47  59 NW5       30.15R
MEXIA          CLEAR     62  43  48 NW6       30.14R
HEARNE         CLEAR     61  48  62 NW3       30.14R
CAMERON        CLEAR     63  51  65 N3        30.14R
TEMPLE         CLEAR     62  47  57 N3        30.16R
KILLEEN        CLEAR     64  46  51 CALM      30.16R
KILLEEN-SKYLRK CLEAR     63  48  58 N5        30.17R
FORT HOOD      CLEAR     64  45  49 N6        30.13R
GATESVILLE     CLEAR     63  45  51 CALM      30.18R
HAMILTON       CLEAR     60  45  57 NW6       30.18S
LAMPASAS       CLEAR     63  46  54 NW6       30.17R
$$

TXZ095>097-106>112-122>126-135>138-148>153-164>167-230200-
EAST TEXAS

CITY           SKY/WX    TMP DP  RH WIND       PRES   REMARKS
PARIS          CLEAR     59  44  57 N3        30.14R
SULPHUR SPRNGS CLEAR     62  46  57 N7        30.15S
MOUNT PLEASANT CLEAR     61  48  61 NW6       30.14R
GILMER         CLEAR     59  50  72 CALM      30.13R
MINEOLA        CLEAR     57  45  62 NW3       30.14R
TYLER          CLEAR     61  47  59 N5        30.12R
LONGVIEW       CLEAR     58  32  37 NW6       30.11R
MARSHALL       CLEAR     57  53  84 CALM      30.12R
ATHENS         CLEAR     61  45  55 CALM      30.12R
PALESTINE      CLEAR     62  52  69 CALM      30.14R
JACKSONVILLE   CLEAR     63  51  65 CALM      30.14R
HENDERSON      CLEAR     62  51  68 CALM      30.12S
CENTER         CLEAR     67  57  70 NW5       30.11R
NACOGDOCHES    CLEAR     60  54  80 N3        30.11R
LUFKIN         CLEAR     60  56  86 NW5       30.10R
$$

SUPPLEMENTAL OBSERVATIONS (NWS FORT WORTH AREA)

CITY           SKY/WX    TMP DP  RH WIND       PRES   REMARKS
DENISON DAM      N/A     64  36  34 N8          N/A
CADDO GRASSLND   N/A     54  46  76 CALM        N/A
PAT MAYSE LAKE   N/A     57  45  62 N2          N/A
GREENVILLE       N/A     61  43  51 N3          N/A
CEDAR HILL       N/A     57  39  51 CALM        N/A
LBJ GRASSLAND    N/A     55  34  44 CALM        N/A
POSSUM KINGDOM   N/A     61  36  39 N1          N/A
GRANBURY         N/A     59  37  44 W6          N/A
COMANCHE         N/A     63  36  36 NW5         N/A
MCGREGOR         N/A     59  43  55 CALM        N/A
TEMPLE           N/A     64  45  48 N6          N/A
LAKE LIMESTONE   N/A     64  39  39 NW5         N/A
ATHENS           N/A     61  45  55 NW2         N/A
$$

SUPPLEMENTAL OBSERVATIONS (NWS NORMAN AREA)

CITY           SKY/WX    TMP DP  RH WIND       PRES   REMARKS
GOODLETT         N/A     59  38  45 S8        30.16S
ODELL            N/A     58  45  63 S8        30.17S
CROWELL          N/A     57  42  56 S8        30.19R
KNOX CITY        N/A     58  45  61 SE7       30.19S
SEYMOUR          N/A     59  45  58 S3        30.18S
MILLERS CREEK    N/A     61  41  48 SE5         N/A
$$

SUPPLEMENTAL OBSERVATIONS (NWS SAN ANGELO AREA)

CITY           SKY/WX    TMP DP  RH WIND       PRES   REMARKS
WEINERT          N/A     59  44  56 SE7       30.20R
HASKELL          N/A     60  36  40 SE5       30.20R
THROCKMORTON     N/A     58  46  63 S2        30.20S
STAMFORD         N/A     59  42  53 SE5       30.21R
CLYDE            N/A     54  43  66 E1        30.22S
HAMBY            N/A     55  45  67 SE2         N/A
IVIE RESERVOIR   N/A     64  32  29 NE3         N/A
COLORADO BEND    N/A     59  43  55 N1          N/A
$$

SUPPLEMENTAL OBSERVATIONS (NWS SHREVEPORT AREA)

CITY           SKY/WX    TMP DP  RH WIND       PRES   REMARKS
CLARKSVILLE      N/A     57  43  58 NW6         N/A
TEXARKANA        N/A     59  50  72 NW2G12      N/A
LINDEN           N/A     61  52  72 CALM        N/A
CADDO LAKE       N/A     57  54  88 CALM        N/A
GILMER           N/A     57  52  82 CALM        N/A
HENDERSON        N/A     61  52  72 N5          N/A
LUFKIN           N/A     64  52  63 MISG        N/A
N SABINE NF      N/A     61  57  88 MISG        N/A
S SABINE NF      N/A     61  59  94 CALM        N/A
$$

SUPPLEMENTAL OBSERVATIONS ARE A COLLECTION OF AUTOMATED INSTRUMENTS
THAT ARE MAINTAINED BY A VARIETY OF FEDERAL AND STATE AGENCIES.
CERTAIN ELEMENTS...SUCH AS HUMIDITY VALUES AND SUSTAINED WIND
SPEEDS...MAY BE APPROXIMATED.




USA.gov is the U.S. government's official web portal to all federal, state and local government web resources and services.